< < Back
Terminal Aerodrome Forecast


Current Version              Previous Versions:   1  2  3  4  5  6  7  8  9  

Terminal Aerodrome Forecast

521
FTUS42 KJAX 251120
TAFSSI
TAF
KSSI 251120Z 2512/2612 20006KT P6SM SKC
     FM251500 13011KT P6SM SKC
     FM260400 17007KT P6SM SKC=

Latest METAR

796
SAUS70 KWBC 260400 RRH
MTRSSI
METAR KSSI 260353Z AUTO 21007KT 10SM FEW024 28/24 A3007 RMK AO2 SLP183
T02830239


USA.gov is the U.S. government's official web portal to all federal, state and local government web resources and services.